Regional Weather Roundup
Issued by NWS Upton, NY

Current Version | Previous Version | Text Only | Print | Product List | Glossary Off
Versions: 1 2 3 4 5 6 7 8 9 10 11 12 13 14 15 16 17 18 19 20 21 22 23 24 25 26 27 28 29 30 31 32 33 34 35 36 37 38 39 40 41 42 43 44 45 46 47 48 49 50
000 ASUS41 KOKX 090604 RWROKX REGIONAL WEATHER ROUNDUP NATIONAL WEATHER SERVICE NEW YORK NY 100 AM EST TUE FEB 09 2016 NOTE: "FAIR" INDICATES FEW OR NO CLOUDS BELOW 12,000 FEET WITH NO SIGNIFICANT WEATHER AND/OR OBSTRUCTIONS TO VISIBILITY. NYZ071-072-176-178-NJZ106-104-090700- NEW YORK CITY METRO AREA CITY SKY/WX TMP DP RH WIND PRES REMARKS CENTRAL PARK CLOUDY 28 21 75 E9 29.75F WCI 19 LAGUARDIA APRT CLOUDY 28 23 81 E13 29.74F WCI 17 KENNEDY INTL CLOUDY 28 23 81 NE12 29.76F WCI 18 NEWARK/LIBERTY FLURRIES 30 24 78 E7 29.74F WCI 23 BRNX BOT. GARD N/A 28 23 80 E5 29.76R WCI 23 TETERBORO CLOUDY 28 20 71 NE7 29.74F WCI 21 $$ NYZ177-179-078>081-090700- LONG ISLAND NEW YORK CITY SKY/WX TMP DP RH WIND PRES REMARKS FARMINGDALE CLOUDY 27 23 85 NE6 29.75F WCI 20 ISLIP CLOUDY 27 21 78 NE7 29.73F WCI 19 SHIRLEY CLOUDY 26 22 84 CALM 29.76F RIVERHEAD N/A 27 19 74 E1 29.73F WESTHAMPTON FLURRIES 24 20 84 NE6 29.77F WCI 17 EAST HAMPTON CLOUDY 24 19 81 NE3 29.76F MONTAUK POINT N/A 25 19 78 N10 29.77F WCI 15 $$ NYZ052-065-067-090700- HUDSON VALLEY CITY SKY/WX TMP DP RH WIND PRES REMARKS WHITE PLAINS MOCLDY 24 19 81 E5 29.72F WCI 18 NEWBURGH LGT SNOW 25 23 93 E9 29.73F WCI 15 MONTGOMERY CLOUDY 25 22 88 NE5 29.72F FOG WCI 19 POUGHKEEPSIE LGT SNOW 27 22 81 CALM 29.75F VSB 1 ALBANY LGT SNOW 25 21 85 CALM 29.76F FOG $$ NJZ001-105-106-008-010-013-015-019>022-104-090700- NEW JERSEY CITY SKY/WX TMP DP RH WIND PRES REMARKS NEWARK/LIBERTY FLURRIES 30 24 78 E7 29.74F WCI 23 TETERBORO CLOUDY 28 20 71 NE7 29.74F WCI 21 CALDWELL CLOUDY 28 22 78 E7 29.74F WCI 21 MORRISTOWN CLOUDY 28 23 80 NE3 29.74F SOMERVILLE LGT SNOW 29 25 85 CALM 29.72F FOG SUSSEX LGT SNOW 26 22 84 NE5 29.71F FOG WCI 20 ANDOVER N/A 28 23 81 CALM 29.70F TRENTON LGT SNOW 29 26 89 E7 29.72S FOG WCI 22 MILLVILLE CLOUDY 33 31 92 NE7 29.68F WCI 27 ATLANTIC CITY LGT SNOW 33 31 92 NE7 29.69F FOG WCI 27 WRIGHTSTOWN CLOUDY 30 30 100 NE5 29.69F WCI 25 TOMS RIVER CLOUDY 30 28 93 NE3 29.72F BELMAR CLOUDY 30 21 69 E7 29.72S WCI 23 $$ PAZ047>061-062-071-090700- EASTERN PENNSYLVANIA CITY SKY/WX TMP DP RH WIND PRES REMARKS PHILADELPHIA CLOUDY 32 28 85 E10 29.71F WCI 24 ALLENTOWN LGT SNOW 30 26 85 E8 29.70S FOG WCI 22 SCRANTON LGT SNOW 28 23 81 CALM 29.64F $$ CTZ002-004>006-009-010-012-RIZ004-006-007-MAZ004-011-015-090700- SOUTHERN NEW ENGLAND IN CT CITY SKY/WX TMP DP RH WIND PRES REMARKS BRADLEY INTL CLOUDY 23 15 71 NE9 29.76F WCI 13 HARTFORD CLOUDY 24 18 77 N7 29.78F WCI 16 DANBURY LGT SNOW 23 16 74 E6 29.74F WCI 16 WTRBRY/OXFORD CLOUDY 21 10 63 NE7 29.72F WCI 13 BRIDGEPORT LGT SNOW 25 19 78 NE9 29.76F WCI 15 MERIDEN CLOUDY 24 17 74 N7 29.77F WCI 16 NEW HAVEN FLURRIES 24 19 81 NE6 29.76F WCI 17 CHESTER CLOUDY 23 19 86 N6 29.74F WCI 16 GROTON CLOUDY 23 17 78 N9 29.76F WCI 13 WILLIMANTIC CLOUDY 23 15 71 N5 29.77F WCI 17 IN RI CITY SKY/WX TMP DP RH WIND PRES REMARKS PROVIDENCE FLURRIES 22 16 78 N9 29.76F WCI 12 BLOCK ISLAND CLOUDY 23 19 86 N13G21 29.73S WCI 11 WESTERLY CLOUDY 23 15 71 N9 29.76F WCI 13 IN MA CITY SKY/WX TMP DP RH WIND PRES REMARKS BOSTON FLURRIES 20 16 84 NW9 29.77F WCI 9 WORCESTER LGT SNOW 17 12 80 NE9 29.70F VSB 1 WCI 6 WESTFIELD CLOUDY 22 19 89 N5 29.77S WCI 16 PROVINCETOWN FLURRIES 28 25 88 N17G23 29.72F WCI 16 NANTUCKET CLOUDY 32 26 78 N18 29.69R WCI 20 $$ ANZ330-335-338-340-345-350-353-355-090700- COASTAL MARINE OBSERVATIONS STATION/POSITION TIME SKY/WX TEMP WIND PRES VSBY WAVE AIR SEA DIR/SP/G HT/PER (UTC) (F) (DEG/KT/KT) (MB) (MI) (FT/S) NY HARB ENTRANCE 0450 30 43 50/ 12/ 16 1007.2 9/12 4S FIRE IS NOT AVBL 20S FIRE ISLAND 0450 30 45 50/ 10/ 12 1007.5 9/12 GREAT SOUTH BAY NOT AVBL 23SW MTP 0550 29 46 30/ 12/ 17 1007.0 10/14 HUDSON CANYON 0450 36 50 1006.8 15/13 KINGS POINT 0500 27 38 90/ 5/ 9 1007.4 EXECUTION ROCKS NOT AVBL CENTRAL LI SOUND 0500 26 30/ 10/ 14 N/A 1/ 2 EASTERN LI SOUND 0500 25 41 30/ 14/ 19 N/A ROBBINS REEF 0500 29 70/ 8/ 11 1007.0 $$ >>>>>>>>>>>>>>>>>>>>>>>>>>>> KEY <<<<<<<<<<<<<<<<<<<<<<<<<<< > < > SKY/WX - SKY CONDITION/PRESENT WEATHER < > TMP - TEMPERATURE IN FAHRENHEIT < > DP - DEWPOINT IN FAHRENHEIT < > RH - RELATIVE HUMIDITY IN PERCENT < > WIND - DIRECTION AND SPEED IN MPH < > PRES - MEAN SEA LEVEL PRESSURE IN INCHES OF HG < > WCI - WIND CHILL INDEX < > VSB - VISIBILITY IN MILES < > HX - HEAT INDEX < > TC - TEMPERATURE IN CELSIUS < > VRB - VARIABLE WIND DIRECTION < > < >>>>>>>>>>>>>>>>>>>>>>>>>>>> KEY <<<<<<<<<<<<<<<<<<<<<<<<<<<

USA.gov is the U.S. government's official web portal to all federal, state and local government web resources and services.